Location: Buchberg
(46.9333°N, 15.8500°E)
Time: 18:17:16
(UTC+00:00)

Helios 1B rocket - Pass Details

Date: 14 July 2020
Orbit: 574 x 584 km, 98.1° (Epoch: 06 August)

Event Time Altitude Azimuth Distance (km) Brightness Sun altitude
Rises 00:25:41 0° 4° (N) 2,810 7.3 -18.9°
Reaches altitude 10° 00:28:03 10° 353° (N) 1,903 6.0 -18.8°
Maximum altitude 00:31:34 28° 294° (WNW) 1,095 3.8 -18.5°
Enters shadow 00:32:57 23° 260° (W) 1,249 3.8 -18.5°
